Wind_Speed
126 126 126 126 127 127 127 126 126 126 125 124 123 122 120 119 118 116 116 115 114 113 112 111 109 109 108 108 107 107 107 106 105 104 103 102 101 100 100 99 97 97 96 95 95 94 94 94 95 95 95 95 95 95 95 94 94 93 93 93 93 93 93 94 94 95 95 96 96 96 97 96 96 95 95 94 94 93 93 93 94 94 95 95 96 96
127 127 127 126 126 126 125 124 123 121 120 119 117 115 114 112 111 110 109 109 109 108 107 106 105 104 104 103 103 103 102 102 101 100 99 98 97 97 96 95 95 94 93 93 92 92 92 92 92 93 93 93 93 93 93 93 92 91 91 91 91 91 91 92 92 93 93 94 94 94 94 94 93 93 92 92 91 91 91 91 92 92 93 93 94 94
127 127 126 125 124 123 122 120 118 116 114 113 111 110 108 107 106 105 105 105 104 104 103 102 101 101 100 100 99 99 98 98 97 96 95 95 94 94 93 93 92 91 91 90 90 90 90 90 90 91 91 91 91 92 91 91 90 90 89 89 89 89 89 89 90 91 91 92 92 91 91 91 91 90 90 90 89 89 89 89 90 90 91 91 91 92
126 125 124 122 120 118 116 115 113 111 109 107 106 104 103 102 101 101 101 101 101 100 100 99 98 98 97 97 96 96 95 94 93 93 92 92 91 91 90 90 89 89 88 88 87 87 87 88 88 89 89 89 89 89 89 89 88 88 87 87 86 86 87 87 88 88 89 89 88 88 88 88 88 88 88 88 87 87 87 87 88 88 89 89 89 90
124 122 120 118 116 113 111 109 108 106 105 103 102 100 99 99 98 98 98 98 97 97 97 96 96 95 95 94 93 93 92 91 91 90 89 89 88 88 88 87 87 86 86 86 85 85 85 86 86 86 87 87 87 87 86 86 86 86 85 85 85 84 84 85 85 85 85 86 86 86 86 86 86 86 86 85 85 85 85 85 86 86 87 87 87 88
120 118 115 113 111 108 106 105 104 103 101 100 98 97 96 96 95 95 95 95 95 95 94 94 94 93 92 92 91 90 89 89 88 87 86 86 86 85 85 85 84 84 84 83 83 83 83 83 84 84 84 84 84 84 84 84 84 84 83 83 83 82 82 82 82 82 82 82 83 83 84 84 84 84 84 84 83 83 83 83 84 84 85 85 85 85
115 113 111 108 106 104 103 101 101 100 98 97 96 94 93 93 93 93 93 93 93 93 93 92 91 91 90 90 89 88 87 86 85 84 84 83 83 83 83 83 82 82 82 81 81 81 81 81 81 82 82 82 82 82 82 82 81 81 81 81 81 81 80 80 80 79 79 80 80 81 81 81 82 82 82 82 82 82 82 82 82 82 83 83 83 83
111 108 106 105 103 101 100 99 98 97 96 95 93 92 91 90 90 90 91 91 91 91 91 90 89 88 88 87 86 85 84 83 82 81 81 81 81 81 81 81 81 81 80 80 79 79 79 79 79 79 80 80 80 80 79 79 79 79 80 79 79 79 79 78 77 77 77 77 78 78 79 79 80 80 81 81 80 80 80 80 80 81 81 81 81 81
107 105 103 102 100 99 98 96 95 94 93 93 91 90 89 88 88 88 88 89 89 89 89 88 87 86 85 85 84 83 81 80 80 79 80 80 80 80 80 79 79 79 78 78 77 77 77 77 77 77 77 78 78 78 77 77 77 77 77 77 77 77 76 76 75 75 75 75 75 76 77 78 78 79 79 79 79 79 79 78 79 79 79 79 79 79
103 102 101 99 98 96 95 94 93 92 91 91 90 89 88 87 86 85 85 86 86 87 86 85 84 83 82 82 81 80 79 78 78 78 78 79 78 78 78 78 77 77 76 76 75 75 74 74 75 75 75 75 75 75 75 75 75 75 75 75 75 75 74 74 73 73 73 73 73 74 75 76 77 77 78 78 78 77 77 77 77 77 77 77 78 78
100 99 98 97 95 94 93 92 91 90 89 89 88 87 86 85 84 83 82 82 83 83 83 83 82 81 80 79 79 78 77 77 77 77 77 77 77 76 76 75 75 74 74 74 73 73 72 72 72 72 72 72 72 72 72 72 72 72 72 72 72 72 72 71 71 71 70 71 71 72 73 74 75 75 76 76 76 76 76 76 76 76 76 76 76 77
98 96 95 94 93 92 91 90 89 88 88 87 86 85 84 84 83 82 80 80 79 80 80 80 80 79 79 78 76 75 75 75 76 76 76 76 75 74 73 72 72 71 71 71 71 71 70 70 69 69 69 69 69 69 69 69 69 69 70 70 70 70 69 69 68 68 68 69 69 70 70 71 72 73 74 74 74 74 74 74 74 74 74 74 75 75
95 94 93 92 91 90 89 88 87 86 85 85 84 83 82 82 81 80 79 78 77 77 77 77 78 78 77 76 75 74 73 73 74 74 75 74 73 71 70 69 68 68 69 68 68 68 67 67 67 67 66 66 66 66 66 66 66 67 67 67 67 67 67 66 66 66 66 66 67 67 68 69 69 70 71 72 72 73 72 72 72 72 73 73 74 74
92 91 90 89 88 88 87 86 85 84 83 82 82 81 80 80 79 78 77 76 75 75 75 75 75 76 76 75 73 72 71 71 72 72 72 72 70 68 66 66 66 66 66 66 65 65 64 64 64 64 64 63 63 63 63 63 63 64 64 64 64 64 64 64 64 64 64 64 65 65 66 66 67 68 69 70 70 71 71 70 71 71 71 72 73 73
90 89 88 87 86 85 85 84 83 81 80 80 79 79 78 77 77 76 75 74 74 73 73 73 74 74 73 73 71 70 69 69 69 70 70 68 67 65 63 63 63 64 64 63 62 62 61 61 61 61 61 61 60 60 60 60 60 61 61 61 61 61 61 61 61 61 62 62 62 63 63 64 64 65 66 67 68 68 69 69 69 70 71 71 72 73
87 86 86 85 84 83 82 82 81 79 78 77 77 76 76 75 75 74 73 73 72 72 72 72 72 72 71 70 69 67 66 66 66 67 66 65 63 61 60 60 61 62 61 60 59 58 58 58 58 58 58 58 57 57 57 57 57 58 58 58 58 59 59 59 59 59 59 60 60 61 61 61 62 63 64 65 66 67 67 68 68 69 70 71 71 72
85 85 84 82 81 81 80 80 79 77 76 76 75 75 74 74 73 72 71 71 70 70 70 70 69 69 69 68 66 65 63 63 63 63 62 61 60 58 58 58 59 59 58 57 56 56 56 55 55 55 55 55 54 54 54 54 54 54 55 55 55 56 56 56 56 57 57 58 58 59 59 59 60 61 62 63 64 65 66 67 68 69 69 70 71 72
83 82 82 80 79 79 78 78 77 76 75 74 74 73 73 72 71 70 70 69 68 68 68 67 67 66 65 65 64 62 61 60 60 60 59 58 57 56 56 56 56 56 55 54 54 53 53 53 53 52 52 52 52 51 51 51 51 51 51 52 52 53 53 54 54 54 55 55 56 56 57 58 58 59 60 61 62 64 65 66 67 68 68 69 70 71
81 80 80 78 77 76 76 76 75 74 73 73 72 72 71 71 70 69 68 67 66 66 65 64 64 63 62 62 61 60 58 57 57 56 56 55 54 53 53 53 53 53 52 51 51 51 51 50 50 50 49 49 49 49 49 48 48 49 49 49 49 50 50 51 51 52 52 53 53 54 55 55 56 57 58 59 61 62 63 65 66 66 67 68 69 70
79 78 78 77 76 75 74 74 74 73 72 71 71 70 70 69 68 67 66 65 64 63 62 62 61 60 59 59 58 57 56 54 54 53 53 52 51 51 51 51 50 50 49 49 49 49 48 48 48 47 47 47 47 46 46 46 46 46 46 47 47 47 48 48 48 49 50 50 51 52 53 53 54 55 56 58 59 61 62 63 64 65 66 67 68 69
77 76 76 75 74 73 73 73 72 71 71 70 69 69 68 67 66 65 64 63 62 61 60 59 58 57 56 55 55 54 53 52 51 51 50 50 49 49 49 48 48 47 47 46 46 46 46 46 45 45 45 45 44 44 44 44 44 44 44 44 44 45 45 45 46 46 47 47 48 49 50 51 52 53 55 56 58 59 60 62 63 64 65 66 67 67
76 75 74 74 73 72 71 71 70 70 69 68 67 66 66 64 63 62 61 60 59 58 57 56 55 54 53 53 52 51 50 49 49 48 48 47 47 47 46 46 45 45 44 44 44 44 44 43 43 43 43 42 42 42 42 42 42 42 42 42 42 42 42 42 43 43 44 45 46 47 48 49 50 52 53 55 57 58 59 61 62 63 64 65 65 66
75 74 73 72 72 71 70 69 69 68 67 66 65 64 63 61 60 59 58 57 56 55 54 53 52 51 51 50 49 49 48 47 47 46 46 45 45 45 44 44 43 43 42 42 42 42 41 41 41 41 41 40 40 40 40 40 40 40 40 40 40 40 40 40 41 41 42 43 44 45 46 47 49 50 52 54 55 57 59 60 61 62 63 63 64 64
74 73 72 71 70 69 68 68 67 66 65 64 63 62 60 59 57 56 55 54 54 53 52 51 50 49 48 48 47 46 46 45 45 44 44 43 43 43 42 42 41 41 40 40 40 39 39 39 39 39 38 38 38 38 38 38 37 37 37 37 37 38 38 38 38 39 40 41 42 43 44 45 47 48 50 52 54 55 57 58 59 60 61 61 62 62
72 71 71 69 69 68 67 65 64 63 63 62 60 59 58 56 55 53 52 52 51 50 50 49 48 47 46 46 45 44 44 43 43 42 42 41 41 41 40 40 39 39 39 38 38 38 37 37 37 37 36 36 36 36 35 35 35 35 35 35 35 35 36 36 36 37 38 39 40 41 42 43 45 46 48 50 51 53 54 55 57 58 59 59 60 61
71 70 69 68 67 66 64 63 62 61 60 59 58 56 55 54 52 51 50 49 48 48 47 47 46 45 45 44 43 43 42 42 41 41 40 39 39 39 39 38 37 37 37 36 36 36 35 35 35 35 34 34 34 34 33 33 33 33 33 33 33 33 33 34 34 35 36 37 38 39 40 41 42 44 45 46 48 50 51 52 54 55 56 57 58 59
69 68 67 66 65 63 62 61 59 58 57 56 54 53 52 51 50 49 48 47 46 46 45 45 44 43 43 42 42 41 41 40 39 39 38 38 37 37 37 36 36 35 35 34 34 34 33 33 33 33 32 32 32 31 31 31 31 31 31 31 31 31 31 32 32 33 34 34 35 36 37 38 40 41 42 43 45 46 48 50 51 52 54 55 56 57
68 66 65 64 62 61 59 58 56 55 54 53 52 51 50 49 48 47 46 45 44 44 43 43 42 42 41 40 40 40 39 39 38 37 37 36 36 35 35 34 34 33 33 32 32 32 31 31 31 30 30 30 30 29 29 29 29 29 29 28 29 29 29 29 30 31 31 32 33 34 35 36 37 38 39 41 42 44 45 47 48 50 51 52 54 55
66 64 63 61 60 58 57 55 54 52 51 50 49 48 47 47 46 45 44 43 42 42 41 41 40 40 39 39 38 38 38 37 36 36 35 34 34 34 33 32 32 31 30 30 30 29 29 29 29 28 28 28 27 27 27 27 27 26 26 26 26 26 27 27 28 28 29 30 31 31 32 33 34 35 37 38 40 41 43 44 46 47 48 50 51 52
64 62 60 59 57 55 54 53 51 50 49 48 47 46 45 44 44 43 42 41 41 40 40 39 39 38 38 37 37 36 36 35 35 34 33 32 32 32 31 30 30 29 28 28 27 27 27 27 26 26 26 26 25 25 25 25 24 24 24 24 24 24 25 25 25 26 27 27 28 29 30 31 32 33 34 36 37 39 40 42 43 45 46 48 49 50
61 60 58 56 54 53 51 50 49 48 47 45 44 44 43 42 42 41 40 40 39 38 38 38 37 37 36 35 34 34 33 33 33 32 31 31 30 30 29 28 27 27 26 26 25 25 25 25 24 24 24 23 23 23 22 22 22 22 22 22 22 22 23 23 23 24 25 25 26 27 28 29 30 31 32 34 35 37 38 40 41 43 45 46 48 49
59 57 55 54 52 50 49 48 47 45 44 43 42 42 41 40 40 39 39 38 37 37 36 36 36 35 35 34 33 32 32 31 31 30 29 29 28 28 27 26 25 25 24 24 23 23 23 23 22 22 22 21 21 21 21 20 20 20 20 20 20 20 21 21 22 22 23 24 24 25 26 27 29 30 31 32 33 35 37 38 40 42 43 45 46 48
56 54 53 51 49 48 47 46 44 43 43 42 41 40 39 39 38 37 37 36 36 35 35 34 34 33 33 32 31 31 30 29 29 28 27 27 26 26 25 24 23 23 22 22 21 21 20 20 20 20 20 19 19 19 19 19 19 18 19 19 19 19 19 20 20 20 21 22 23 24 25 26 27 28 29 31 32 34 35 37 38 40 42 43 45 46
54 52 50 49 47 46 45 44 43 42 41 40 39 38 38 37 36 36 35 35 34 33 33 32 32 31 31 30 30 29 28 27 27 26 26 25 24 24 23 23 22 21 20 20 19 19 19 18 18 18 18 18 18 17 17 17 17 17 17 18 17 18 18 18 18 19 19 20 21 22 23 24 25 26 28 29 30 32 33 35 37 38 39 41 42 43
51 49 48 46 45 44 43 42 41 40 39 38 37 37 36 35 35 34 33 33 32 32 31 31 30 29 29 28 28 27 27 26 25 25 24 23 23 22 22 21 20 19 19 18 18 17 17 17 16 16 16 16 16 16 16 16 16 16 16 17 17 17 17 17 17 18 18 19 19 20 21 22 23 24 26 27 28 30 31 33 34 36 37 38 39 40
48 47 45 44 43 42 41 40 39 38 37 36 36 35 34 34 33 32 32 31 30 30 29 29 28 28 27 27 26 26 25 24 24 23 23 22 21 21 20 19 19 18 17 17 16 16 15 15 15 15 15 15 15 15 15 15 15 15 15 16 16 16 16 16 17 17 17 18 19 19 20 21 22 23 24 26 27 28 30 31 32 33 35 36 37 38
46 44 43 42 41 40 39 38 37 36 35 35 34 33 32 32 31 30 30 29 29 28 28 27 27 26 26 25 25 24 24 23 22 22 21 21 20 19 18 18 17 17 16 15 15 14 14 14 14 14 14 14 14 14 14 14 14 15 15 15 15 15 15 16 16 17 17 18 18 19 20 21 22 23 24 25 26 27 29 30 31 32 33 34 35 36
43 42 41 40 39 38 37 36 35 34 34 33 32 31 31 30 29 29 28 28 27 27 26 26 25 25 24 24 23 23 22 21 21 20 20 19 18 18 17 16 16 15 14 14 13 13 12 12 13 13 13 13 13 13 13 14 14 14 14 14 15 15 15 16 16 17 17 18 19 19 20 21 22 23 24 25 26 27 28 29 30 31 32 33 34 35
41 40 39 38 37 36 35 34 34 33 32 31 31 30 29 29 28 27 27 26 26 25 25 24 24 23 23 22 22 21 21 20 20 19 18 18 17 16 16 15 14 14 13 13 12 12 11 11 11 12 12 12 12 13 13 13 13 14 14 14 14 15 15 16 16 17 18 18 19 20 20 21 22 23 24 25 26 27 28 29 30 30 31 32 33 34
39 38 37 36 35 34 34 33 32 31 31 30 29 29 28 27 27 26 26 25 25 24 24 23 23 22 22 21 21 20 19 19 18 18 17 16 16 15 14 14 13 13 12 11 11 11 10 10 11 11 11 12 12 12 12 13 13 13 13 14 14 15 15 16 16 17 18 18 19 20 20 21 22 22 23 24 25 26 27 27 28 29 30 31 32 33
37 36 35 34 33 33 32 31 30 30 29 28 28 27 27 26 26 25 25 24 23 23 22 22 21 21 20 20 19 19 18 18 17 16 16 15 15 14 13 13 12 11 11 10 10 9 9 10 10 10 11 11 11 12 12 12 13 13 13 14 14 15 15 16 17 17 18 18 19 19 20 20 21 21 22 23 23 24 25 26 27 28 29 29 31 32
35 34 33 32 32 31 30 30 29 28 28 27 27 26 26 25 25 24 24 23 22 21 21 20 20 19 19 18 18 17 17 16 16 15 15 14 13 13 12 11 11 10 10 9 9 9 9 9 9 10 10 10 11 11 12 12 12 13 13 14 14 15 15 16 16 17 17 18 18 19 19 20 20 21 21 22 22 23 24 25 25 26 27 28 30 31
33 32 31 31 30 29 29 28 28 27 26 26 26 25 25 24 24 23 22 22 21 20 20 19 19 18 17 17 16 16 15 15 15 14 14 13 13 12 11 10 10 9 9 8 8 8 8 8 9 9 10 10 10 11 11 12 12 13 13 13 14 15 15 16 16 16 17 17 18 18 19 19 20 20 21 22 22 23 24 25 25 26 27 28 29 30
31 31 30 29 28 28 27 27 26 26 25 25 25 24 24 23 23 22 21 21 20 19 19 18 18 17 16 16 15 15 14 14 14 13 13 12 12 11 10 10 9 9 8 8 8 7 8 8 8 9 9 10 10 10 11 11 12 12 13 13 14 14 15 15 16 16 17 17 18 18 19 19 20 21 21 22 23 23 24 25 26 27 27 28 29 30
30 29 28 28 27 26 26 25 25 25 24 24 24 23 23 22 21 21 20 19 19 18 18 17 17 16 16 15 15 14 14 13 13 13 12 12 11 11 10 9 8 8 8 7 7 7 7 7 8 8 9 9 10 10 11 11 12 12 13 13 14 14 14 15 15 16 16 17 18 18 19 20 20 21 22 22 23 24 24 25 26 27 28 28 29 30
29 28 27 26 26 25 25 24 24 24 23 23 23 22 22 21 20 20 19 18 18 17 17 17 16 16 15 15 14 14 13 13 12 12 12 11 10 10 9 9 8 8 7 7 7 7 7 7 7 8 8 9 9 10 10 11 11 12 12 13 13 14 14 15 15 16 16 17 18 18 19 20 20 21 22 22 23 24 25 25 26 27 28 28 29 30
27 27 26 25 25 24 24 23 23 23 23 22 22 21 21 20 19 19 18 18 18 17 17 16 16 15 15 14 14 13 13 12 12 12 11 11 10 9 9 8 8 7 7 6 6 6 7 7 7 8 8 9 9 10 10 11 11 12 12 13 13 14 14 15 15 16 16 17 17 18 19 20 20 21 22 23 23 24 25 26 26 27 28 28 29 30
26 26 25 24 24 23 23 22 22 22 22 21 21 20 20 19 19 19 18 18 17 17 17 16 16 15 15 14 14 13 13 12 12 11 11 10 9 9 8 8 7 7 7 6 6 6 6 7 7 8 8 9 9 10 10 11 11 12 12 12 13 13 14 14 15 16 16 17 17 18 19 19 20 21 22 23 23 24 25 26 26 27 28 28 29 29
25 25 24 23 23 22 22 22 21 21 21 20 20 20 19 19 19 18 18 18 17 17 17 16 15 15 15 14 14 14 13 13 12 11 11 10 9 8 8 7 7 7 7 6 6 6 7 7 7 8 8 9 9 10 11 11 11 12 12 12 13 13 14 14 15 15 16 17 17 18 19 19 20 21 22 22 23 24 25 26 26 27 27 28 29 29
24 24 23 23 22 22 21 21 21 20 20 20 20 19 19 19 19 18 18 18 17 17 16 16 15 15 14 14 14 14 13 13 12 11 10 9 8 8 7 7 7 7 6 6 6 7 7 7 8 8 9 9 9 10 11 11 12 12 12 13 13 13 14 14 15 15 16 16 17 18 19 19 20 21 22 22 23 24 25 25 26 27 27 28 29 29
23 23 23 22 22 21 21 21 20 20 20 19 19 19 19 19 19 18 18 17 17 17 16 15 15 14 14 14 14 14 14 13 13 12 11 9 8 7 7 7 7 7 7 6 7 7 7 8 8 9 9 9 10 10 11 11 12 13 13 13 13 14 14 14 15 15 16 17 17 18 19 19 20 21 21 22 23 24 24 25 26 26 27 27 28 29
Wind_Direction
295 295 294 294 294 293 293 292 292 291 291 290 290 289 289 288 288 288 287 287 286 286 285 285 284 283 283 282 282 281 281 281 281 281 280 280 280 280 280 280 279 279 278 277 277 276 275 275 274 273 272 271 271 270 269 268 267 266 265 264 263 263 262 261 261 260 260 259 258 258 258 257 257 256 256 255 255 254 253 253 252 252 251 251 250 250
296 296 295 295 294 294 294 293 293 292 291 291 290 290 289 289 289 288 288 287 286 286 285 285 284 284 283 282 282 282 281 281 281 281 281 281 281 281 280 280 279 279 278 277 277 276 275 274 273 272 271 271 270 269 268 267 267 266 265 264 263 262 261 261 260 260 259 259 258 258 258 257 257 256 256 255 254 254 253 252 251 251 250 250 249 249
297 296 296 296 295 295 294 294 293 293 292 292 291 291 290 290 289 289 288 287 287 286 286 285 285 284 283 283 283 282 282 282 282 282 282 282 281 281 281 280 279 279 278 277 276 275 274 273 272 271 270 270 269 269 268 267 267 266 265 264 263 262 261 260 260 259 259 259 259 258 258 258 257 256 256 255 254 253 252 251 251 250 249 249 248 248
297 297 297 296 296 296 295 295 294 293 293 292 292 291 291 290 290 289 288 288 287 287 286 286 285 285 284 284 283 283 283 283 283 283 283 282 282 281 281 280 279 278 277 276 275 274 273 272 272 271 270 270 269 268 268 268 267 266 265 264 263 262 261 261 260 260 259 259 259 258 258 257 257 256 255 254 253 252 252 251 250 249 248 248 247 247
298 298 298 297 297 296 296 295 295 294 293 293 292 292 292 291 290 290 289 288 288 287 287 286 286 285 285 285 285 284 284 284 284 284 283 283 282 281 281 280 279 278 277 276 275 274 273 272 272 271 270 270 269 269 268 268 267 267 266 265 264 263 262 261 260 260 259 259 259 258 258 257 257 256 255 254 253 252 251 250 249 248 248 247 246 246
299 299 298 298 298 297 297 296 295 295 294 294 293 293 292 292 291 290 290 289 288 288 287 287 287 286 286 286 286 285 285 285 284 284 284 283 282 281 280 279 278 277 276 275 275 274 273 273 272 271 271 270 270 270 269 268 268 267 266 265 264 263 262 261 260 260 259 259 258 258 257 257 256 256 255 254 253 252 251 250 249 248 247 246 245 245
300 299 299 299 298 298 297 297 296 296 295 294 294 293 293 292 292 291 290 290 289 289 288 288 288 287 287 287 286 286 286 285 285 284 284 283 282 281 280 279 278 277 277 276 275 274 274 273 273 272 272 271 271 270 269 269 268 267 266 265 265 264 262 261 261 260 259 258 258 257 257 256 256 255 254 253 252 251 250 249 248 247 246 246 245 244
301 300 300 299 299 299 298 297 297 296 295 295 294 294 293 292 292 292 291 290 290 289 289 289 288 288 288 288 287 287 286 286 285 285 284 283 282 281 280 279 278 278 277 277 276 275 275 274 273 273 272 271 271 270 269 269 268 267 266 265 265 264 263 262 261 260 258 257 257 256 256 255 254 254 253 252 251 250 249 248 247 247 246 245 244 243
301 301 300 300 300 299 299 298 297 297 296 295 295 294 293 293 292 292 291 291 290 290 290 289 289 289 288 288 288 287 287 286 286 285 284 283 282 281 280 280 279 279 278 278 277 276 276 275 274 273 272 272 271 270 270 269 268 267 266 266 265 264 263 262 261 259 258 257 256 255 254 254 253 252 251 251 250 249 248 247 246 245 245 244 243 242
302 301 301 300 300 299 299 298 298 297 296 296 295 295 294 294 293 292 292 291 291 290 290 290 290 289 289 288 288 288 287 286 286 285 283 282 282 281 281 280 280 280 279 279 278 277 276 275 274 273 273 272 271 271 270 269 268 268 267 266 265 264 263 262 261 259 258 257 255 254 253 252 252 251 251 250 249 248 247 246 245 244 243 243 242 241
302 302 301 301 300 300 299 299 298 298 297 296 296 295 295 294 293 293 292 291 291 291 290 290 290 289 289 288 288 288 287 286 286 284 283 283 282 281 281 281 281 281 280 279 278 277 276 275 274 273 273 272 272 271 270 269 269 268 267 266 265 264 263 262 261 259 258 256 255 253 252 251 251 250 250 249 248 247 246 245 244 243 242 241 240 240
303 302 302 301 301 300 300 299 298 298 297 297 296 296 295 295 294 293 292 292 291 291 291 291 290 290 289 288 288 288 287 286 285 284 283 283 282 282 282 282 282 281 280 279 278 277 276 275 275 274 273 272 272 271 270 269 269 268 267 266 265 264 263 262 260 259 258 256 255 253 252 251 250 249 249 248 248 247 246 245 243 242 242 241 239 239
303 303 302 302 301 301 300 299 299 298 298 297 297 296 296 295 294 294 293 293 292 292 291 291 290 290 289 289 288 288 287 286 285 285 284 283 283 283 283 283 282 280 279 278 277 277 276 276 275 274 273 272 272 271 270 269 268 267 266 266 265 264 263 262 260 259 258 256 254 253 251 250 249 248 248 247 247 246 245 244 243 242 241 239 239 238
303 303 302 302 301 301 300 300 299 299 298 298 297 296 296 295 295 294 294 294 293 292 292 291 290 290 289 289 289 288 287 286 286 285 284 284 284 284 284 283 282 280 279 278 277 277 276 276 275 274 273 272 271 271 270 269 268 267 266 265 264 264 263 261 260 259 257 256 254 253 251 250 248 247 247 246 245 245 244 243 241 240 239 238 237 236
304 303 303 302 302 301 300 300 299 299 298 298 297 297 296 295 295 295 295 294 294 293 292 291 291 290 289 289 289 289 288 287 286 285 285 285 285 285 284 283 281 280 279 278 278 277 276 276 275 274 273 272 271 270 269 268 267 266 266 265 264 263 262 261 259 258 256 255 253 252 250 249 247 246 245 244 244 243 242 241 240 238 237 236 235 235
304 304 303 302 302 301 301 300 300 299 299 298 297 297 296 296 296 295 295 295 294 293 292 292 291 290 290 290 289 289 288 287 286 285 285 285 285 285 284 282 280 279 279 279 278 277 276 275 274 273 273 272 271 270 269 268 267 266 265 264 263 262 261 260 258 257 255 254 252 251 249 248 246 245 244 243 242 241 240 239 238 237 235 234 233 233
305 304 303 303 302 302 301 300 300 300 299 299 298 297 297 297 296 296 296 295 294 294 293 292 291 291 290 290 290 289 288 287 286 286 286 286 285 284 283 281 280 280 280 279 279 278 277 275 275 274 273 272 271 270 269 268 267 266 265 264 262 261 260 259 257 256 254 253 251 250 248 247 245 243 242 241 240 239 238 237 236 235 234 233 232 231
305 305 304 303 303 302 302 301 301 300 300 299 299 298 298 297 297 297 296 295 295 294 293 292 292 291 291 290 290 289 288 287 287 286 286 286 285 284 283 281 281 280 280 280 279 278 277 276 275 274 273 272 271 270 269 268 267 266 264 263 262 261 259 258 257 255 253 252 250 249 247 245 244 242 240 239 238 237 236 235 234 233 233 232 231 230
306 305 304 304 303 303 302 302 301 301 300 300 299 299 298 298 298 297 297 296 295 294 293 293 292 292 291 291 290 290 289 288 287 287 286 285 285 284 283 282 281 281 281 280 279 278 277 276 276 275 274 273 272 271 270 269 267 266 265 263 262 260 259 258 256 255 253 251 250 248 246 244 243 241 239 238 236 235 235 234 233 232 231 231 230 229
306 306 305 304 304 303 303 302 302 301 301 301 300 300 299 299 298 298 297 296 295 294 294 293 292 292 291 291 290 290 290 289 288 287 286 286 285 284 283 282 282 282 281 280 280 279 278 277 276 275 274 273 272 271 270 269 268 266 265 264 262 261 259 258 256 255 253 251 249 248 246 244 242 240 238 237 235 234 233 233 232 231 231 230 229 229
307 306 305 305 304 304 303 303 302 302 302 301 301 300 300 299 299 298 297 297 296 295 294 294 293 292 292 291 291 290 290 289 289 288 287 286 285 284 284 283 283 282 281 281 280 279 278 278 277 276 275 274 273 272 270 270 268 267 266 264 263 261 260 258 257 255 253 251 249 247 245 243 241 239 237 236 234 233 232 231 231 230 229 229 228 228
307 306 306 305 305 304 304 303 303 302 302 301 301 300 300 299 299 298 298 297 296 295 295 294 293 293 292 292 291 291 290 290 289 288 288 287 286 285 285 284 284 283 282 281 280 279 278 278 277 276 275 274 273 272 271 270 269 268 266 265 264 262 261 259 257 255 253 251 249 247 245 243 241 238 237 235 233 232 231 230 229 229 228 228 227 227
307 307 306 306 305 305 304 304 303 303 302 302 301 301 300 300 299 298 298 297 296 296 295 294 294 293 293 292 292 291 291 290 289 289 288 288 287 286 285 285 284 283 282 281 280 280 279 278 277 276 275 274 273 272 271 270 269 268 267 266 264 262 261 259 257 255 253 251 249 247 244 242 240 238 236 234 233 231 230 229 228 227 227 226 226 225
307 307 306 306 306 305 305 304 304 303 303 302 302 301 300 300 299 299 298 297 297 296 296 295 294 294 293 293 292 291 291 291 290 289 289 288 288 287 286 286 285 284 283 282 281 280 279 278 277 276 275 274 273 272 271 270 269 268 267 265 264 262 260 259 257 255 253 250 248 246 244 242 240 238 236 234 233 232 231 229 228 227 226 225 224 223
307 307 307 306 306 306 305 305 304 303 303 302 302 301 301 300 300 299 298 298 297 297 296 295 295 294 294 293 293 292 292 291 291 290 290 289 288 288 287 286 285 284 284 282 281 281 280 278 277 277 275 275 273 273 272 270 269 268 267 265 263 262 260 258 256 254 252 250 248 246 243 242 240 238 236 235 234 233 231 230 229 228 226 225 224 222
307 307 307 307 306 306 305 305 304 304 303 302 302 301 301 300 300 299 298 298 297 297 296 296 295 295 294 294 293 293 293 292 292 291 291 290 289 288 287 287 286 285 284 283 282 281 280 279 278 277 276 275 274 272 271 270 269 267 266 264 263 261 259 257 255 253 251 249 247 245 243 241 239 238 236 235 234 233 232 231 229 228 226 225 223 222
308 307 307 307 307 306 306 305 304 304 303 302 302 301 301 301 300 299 299 298 297 297 296 296 296 295 295 295 294 294 293 293 292 292 291 290 289 289 288 287 286 285 284 283 283 281 281 279 278 277 276 275 273 272 271 270 268 267 265 264 262 260 259 256 254 252 250 248 245 243 241 240 238 237 236 234 234 233 231 230 229 228 226 225 223 222
308 308 308 307 307 306 306 305 304 304 303 302 302 301 301 301 300 300 299 298 298 297 297 296 296 296 295 295 294 294 294 293 293 292 291 291 290 289 288 287 287 286 285 284 283 282 281 280 279 277 276 275 273 271 270 269 268 266 264 263 261 259 258 256 253 251 249 246 244 242 240 238 237 235 234 233 232 231 230 229 228 227 226 225 224 222
308 308 308 307 307 306 306 305 304 304 303 303 302 302 301 301 301 300 299 299 298 298 297 297 297 296 296 295 295 294 294 293 293 292 292 291 290 289 288 288 287 286 285 284 284 283 281 280 279 277 276 274 273 271 269 268 267 265 263 262 260 258 256 254 252 250 247 245 242 240 238 236 234 233 232 231 230 229 228 228 227 226 225 224 223 222
309 308 308 307 307 306 306 305 304 304 303 303 302 302 302 301 301 301 300 300 299 299 298 298 297 297 296 296 295 295 294 293 293 293 292 292 290 289 289 288 287 287 286 285 284 283 282 280 278 277 275 274 272 270 269 267 265 264 262 260 258 256 254 252 250 247 245 242 240 238 235 233 232 230 229 229 228 227 226 226 225 224 223 222 221 221
309 308 308 307 307 306 306 305 304 304 304 303 303 303 302 302 302 301 301 301 300 300 299 299 298 298 297 297 296 296 295 294 293 294 293 292 291 290 290 289 288 287 286 285 284 283 281 280 278 276 274 273 271 269 268 266 264 262 260 258 256 254 252 249 247 244 242 239 237 234 232 230 228 227 226 225 225 224 223 222 222 221 220 219 219 218
309 308 308 307 307 306 306 305 305 305 304 304 304 303 303 303 302 302 302 302 302 301 301 300 299 299 298 297 297 296 295 294 294 294 293 293 291 291 290 289 288 287 286 285 283 282 280 278 277 275 273 271 269 268 266 264 262 259 257 255 253 250 248 246 243 241 239 237 234 232 229 227 225 224 223 222 221 221 220 219 219 218 218 217 217 216
309 308 308 308 307 307 306 306 305 305 305 305 304 304 304 303 303 303 303 303 303 302 302 301 300 300 299 298 298 297 296 295 295 295 294 293 292 291 290 289 288 287 286 285 283 281 278 277 275 273 271 269 267 265 263 261 259 256 254 251 249 247 244 242 240 238 236 234 232 230 228 225 223 222 220 219 218 218 217 217 217 216 216 216 216 215
309 308 308 308 307 307 306 306 306 306 306 305 305 305 305 305 305 304 304 304 304 303 303 302 301 300 300 299 298 297 297 296 296 295 294 294 292 291 290 289 288 287 286 284 282 279 277 275 273 271 269 267 265 262 260 257 255 252 250 247 244 242 240 238 236 235 233 231 230 228 226 224 222 221 219 218 217 216 216 215 215 215 215 215 215 215
309 308 308 308 307 307 307 307 306 306 306 306 306 306 306 306 306 305 305 305 305 304 304 303 302 301 300 300 299 298 297 297 296 295 295 293 292 291 290 289 288 286 284 283 281 278 276 274 272 270 267 265 263 260 256 254 251 248 245 242 240 238 235 233 231 230 229 228 226 225 224 223 221 220 218 217 216 215 215 215 214 214 214 214 214 214
309 308 308 308 308 307 307 307 307 307 307 307 307 307 307 307 307 307 306 306 306 305 304 304 303 302 302 301 300 299 298 297 297 296 294 294 292 291 290 288 287 286 283 281 279 277 275 272 271 268 265 263 260 257 254 250 247 244 241 238 235 233 231 229 227 225 224 222 222 221 220 219 218 217 216 215 215 214 214 214 214 213 213 213 213 213
309 308 308 308 308 308 308 308 308 308 308 308 308 308 308 307 308 307 307 307 306 306 305 305 304 303 302 302 301 300 299 298 297 296 295 294 292 291 289 288 286 285 282 280 278 276 273 271 269 266 263 259 256 254 251 247 244 240 237 234 231 229 226 224 222 220 218 217 217 216 215 215 214 213 213 212 212 212 211 212 211 212 212 211 211 211
309 309 309 308 308 308 308 309 308 309 309 309 309 309 309 308 308 308 308 308 307 306 306 305 304 304 303 302 302 301 300 299 298 296 295 294 292 291 289 287 286 283 281 278 275 273 271 268 265 262 259 256 253 250 248 244 241 238 234 231 228 225 222 220 218 216 215 213 212 211 211 210 209 209 209 209 208 208 208 208 209 209 209 209 209 209
309 309 309 309 309 309 309 309 309 309 309 310 310 310 310 309 309 309 309 308 308 307 306 306 305 304 304 303 302 301 300 299 298 297 295 294 292 290 288 287 285 282 280 277 275 272 269 266 262 258 256 252 249 246 244 242 238 235 231 228 225 222 219 217 215 214 212 211 210 209 208 207 207 206 206 206 206 206 206 206 206 206 206 206 207 207
310 310 310 310 310 310 310 310 310 310 310 311 311 311 311 311 311 310 310 309 309 308 307 307 306 305 304 303 303 302 301 299 298 297 295 294 291 290 288 285 283 281 279 276 273 269 266 261 258 254 252 248 244 243 240 238 236 233 229 225 222 220 217 215 213 212 210 209 208 207 206 205 205 205 205 205 205 205 205 204 204 204 204 204 205 205
310 310 310 310 310 311 311 311 311 311 312 312 312 312 312 312 312 311 311 310 309 309 308 307 306 305 305 304 303 302 301 300 299 297 295 293 291 289 287 284 282 279 277 274 270 266 261 258 253 250 247 244 240 238 236 235 232 230 227 224 221 219 216 214 212 211 209 208 207 206 205 205 204 204 204 203 204 204 203 203 203 203 203 202 203 203
311 311 311 311 311 311 312 312 312 313 313 313 314 314 313 313 312 312 311 310 310 309 308 307 307 305 305 304 303 303 302 301 299 297 295 293 290 288 286 283 280 276 274 270 266 262 257 253 249 245 242 239 236 234 232 230 228 227 224 222 220 218 216 214 212 210 209 207 206 205 204 203 202 202 201 201 201 201 201 201 201 201 201 201 201 201
311 311 311 312 312 313 313 313 314 314 315 315 315 315 314 314 313 312 311 311 310 309 309 308 307 306 306 305 304 303 302 301 299 297 294 292 289 287 284 281 277 274 270 266 261 256 252 246 243 239 237 234 231 229 228 226 225 223 222 221 219 218 216 214 213 210 208 206 205 204 202 201 200 199 199 198 198 198 198 198 198 198 198 198 198 199
312 312 313 313 313 314 314 315 315 316 316 316 316 315 315 314 313 313 312 311 311 310 310 310 309 308 306 305 304 303 302 301 299 297 294 291 289 285 282 279 275 271 266 261 255 251 247 242 237 234 231 229 226 224 223 222 221 220 219 218 217 216 215 214 212 210 208 206 204 203 201 200 198 197 197 196 196 195 195 195 195 195 195 195 195 196
313 313 314 314 315 315 316 317 318 318 318 318 317 316 315 315 314 313 313 313 313 312 312 311 311 309 308 307 305 304 302 301 299 297 294 291 288 285 281 277 272 268 262 257 251 245 241 236 232 228 226 222 220 219 218 217 217 217 216 215 215 214 214 213 212 210 208 207 204 203 201 199 198 196 195 194 194 194 193 193 193 193 193 193 193 193
314 315 315 316 316 317 318 319 319 319 319 319 318 317 316 316 316 316 315 315 315 315 315 314 313 312 310 309 307 305 303 300 299 297 294 291 289 285 280 275 270 264 258 252 247 240 235 231 226 223 220 217 215 214 213 212 212 212 212 212 212 212 211 211 210 209 208 207 205 203 201 199 197 196 195 194 193 193 193 192 192 192 191 191 191 191
316 316 317 318 318 319 320 321 321 321 320 320 319 318 318 318 318 318 319 319 319 319 318 317 316 315 314 312 310 308 305 301 298 295 294 291 288 285 280 275 268 261 253 247 241 235 230 225 222 217 215 212 210 209 208 207 208 208 208 209 209 209 209 209 208 208 207 207 206 204 202 200 198 197 195 194 194 193 193 192 192 192 191 191 190 190
317 318 318 319 320 320 321 322 322 322 321 321 320 320 320 321 321 322 322 322 322 322 322 321 320 320 318 316 314 310 307 303 299 295 293 291 288 284 280 274 267 260 251 243 236 228 223 219 215 212 209 207 205 203 202 201 201 202 204 205 205 205 206 206 206 206 206 205 205 204 202 201 200 198 197 196 195 194 193 193 193 192 191 191 190 190
318 319 320 321 321 322 323 323 323 323 322 322 322 322 323 324 324 325 326 325 325 325 325 325 324 324 322 321 318 314 310 306 300 296 293 290 287 283 278 272 265 257 248 238 230 223 217 212 208 206 203 202 200 198 197 197 197 198 199 199 201 201 202 203 203 204 204 204 204 203 202 202 200 199 198 197 196 195 195 194 193 193 192 192 191 190
320 320 321 322 323 323 324 324 324 324 323 323 324 325 326 326 327 328 327 328 328 328 327 328 328 328 327 325 323 319 314 309 303 297 292 289 285 281 275 268 261 253 244 235 226 217 210 206 203 201 199 197 196 195 194 193 193 193 194 195 196 197 198 199 200 201 202 202 203 202 202 202 201 200 199 199 198 197 196 195 194 194 193 193 192 191
322 322 323 324 325 325 325 325 324 324 324 325 326 327 328 329 330 329 329 330 330 330 330 330 331 332 331 330 327 323 319 313 307 300 294 290 285 279 272 264 256 248 240 232 223 214 206 201 198 195 195 194 193 192 190 190 190 190 190 190 191 193 194 195 197 198 199 200 201 201 201 201 201 200 200 199 198 198 197 197 196 195 194 193 193 192
Height
10298 10293 10288 10283 10279 10275 10269 10262 10257 10253 10248 10240 10234 10230 10225 10220 10215 10210 10205 10200 10195 10190 10187 10185 10182 10179 10176 10172 10168 10165 10162 10160 10158 10157 10156 10155 10154 10153 10152 10151 10151 10151 10150 10150 10150 10149 10148 10146 10145 10143 10141 10140 10140 10140 10140 10141 10142 10143 10145 10145 10145 10145 10146 10146 10147 10148 10149 10149 10150 10151 10153 10155 10158 10161 10165 10168 10171 10175 10178 10181 10185 10187 10191 10193 10197 10201
10281 10277 10273 10267 10263 10259 10253 10246 10241 10237 10232 10226 10221 10216 10211 10208 10203 10198 10193 10188 10183 10178 10175 10172 10170 10166 10164 10161 10157 10155 10152 10150 10149 10148 10146 10145 10144 10143 10142 10141 10141 10140 10140 10139 10138 10137 10136 10135 10133 10131 10130 10128 10128 10128 10128 10128 10130 10131 10132 10133 10134 10135 10135 10136 10136 10137 10137 10138 10139 10141 10143 10146 10149 10152 10155 10158 10162 10165 10169 10171 10175 10177 10180 10183 10187 10191
10267 10263 10258 10252 10248 10243 10238 10232 10226 10222 10217 10212 10208 10203 10199 10195 10191 10186 10181 10176 10171 10167 10163 10160 10157 10155 10152 10150 10147 10145 10142 10141 10140 10139 10138 10136 10135 10133 10132 10131 10130 10129 10128 10128 10126 10126 10125 10123 10121 10120 10118 10118 10116 10116 10116 10117 10118 10120 10121 10122 10123 10125 10125 10126 10126 10126 10127 10128 10130 10133 10135 10138 10140 10143 10146 10149 10152 10156 10159 10161 10165 10167 10170 10173 10177 10181
10252 10248 10243 10237 10233 10228 10224 10218 10213 10208 10203 10199 10195 10191 10187 10183 10179 10174 10170 10165 10160 10156 10153 10150 10146 10143 10141 10139 10137 10135 10133 10132 10131 10130 10128 10126 10125 10123 10121 10120 10119 10118 10117 10116 10115 10114 10113 10111 10110 10109 10108 10107 10106 10106 10106 10107 10108 10110 10111 10112 10114 10115 10116 10116 10117 10118 10118 10120 10123 10125 10126 10129 10131 10133 10136 10140 10143 10146 10149 10151 10155 10157 10160 10164 10167 10171
10238 10233 10228 10223 10218 10214 10210 10205 10200 10195 10190 10186 10183 10180 10176 10171 10167 10162 10158 10153 10149 10145 10142 10139 10136 10133 10131 10129 10127 10126 10125 10123 10121 10120 10118 10116 10115 10113 10111 10110 10108 10107 10106 10105 10104 10103 10102 10101 10100 10098 10098 10097 10097 10098 10098 10098 10099 10100 10101 10102 10104 10105 10106 10107 10108 10109 10111 10113 10115 10116 10117 10120 10121 10124 10127 10130 10133 10136 10139 10142 10145 10148 10151 10155 10158 10161
10224 10220 10215 10210 10205 10201 10196 10192 10187 10182 10177 10174 10171 10168 10165 10160 10155 10151 10147 10143 10138 10135 10131 10128 10126 10123 10121 10119 10118 10116 10115 10114 10113 10111 10109 10106 10105 10102 10100 10099 10098 10096 10095 10095 10094 10093 10092 10091 10090 10090 10089 10088 10088 10089 10089 10090 10090 10091 10091 10093 10094 10095 10097 10098 10100 10101 10103 10105 10106 10108 10109 10111 10113 10116 10118 10121 10123 10126 10130 10132 10136 10139 10142 10145 10149 10153
10211 10206 10201 10197 10193 10188 10185 10180 10175 10170 10165 10162 10160 10157 10154 10150 10145 10141 10136 10132 10128 10125 10121 10119 10116 10114 10111 10110 10108 10107 10106 10105 10103 10101 10099 10096 10094 10091 10090 10088 10087 10086 10085 10085 10085 10084 10083 10083 10081 10081 10080 10080 10080 10080 10080 10081 10081 10081 10082 10083 10084 10086 10087 10089 10091 10093 10095 10097 10098 10100 10101 10103 10105 10106 10109 10111 10114 10117 10120 10123 10126 10130 10133 10136 10140 10144
10198 10194 10190 10185 10180 10176 10172 10168 10164 10159 10155 10151 10148 10146 10143 10140 10136 10132 10127 10122 10118 10114 10111 10110 10108 10105 10103 10100 10098 10098 10097 10096 10094 10092 10090 10086 10084 10081 10080 10078 10077 10076 10076 10075 10075 10075 10075 10074 10073 10072 10071 10071 10071 10071 10071 10071 10072 10072 10073 10073 10075 10076 10078 10080 10082 10085 10087 10089 10090 10091 10092 10093 10095 10096 10099 10101 10104 10107 10110 10113 10117 10120 10124 10128 10132 10136
10187 10183 10178 10173 10170 10165 10160 10156 10153 10150 10145 10141 10138 10135 10133 10130 10127 10124 10120 10114 10108 10104 10101 10100 10099 10097 10094 10091 10090 10088 10088 10086 10085 10082 10079 10076 10074 10072 10070 10070 10068 10068 10067 10066 10066 10066 10066 10065 10065 10063 10063 10062 10061 10062 10062 10063 10063 10063 10064 10065 10066 10067 10069 10071 10073 10076 10078 10080 10081 10082 10083 10085 10086 10087 10090 10091 10095 10098 10101 10105 10108 10111 10115 10120 10123 10128
10176 10172 10168 10163 10160 10155 10151 10146 10142 10139 10135 10131 10128 10126 10123 10120 10117 10115 10111 10106 10101 10096 10092 10091 10090 10088 10086 10083 10081 10080 10079 10078 10076 10073 10070 10066 10065 10063 10062 10061 10061 10060 10059 10058 10058 10058 10057 10056 10056 10055 10054 10053 10053 10053 10054 10054 10055 10055 10055 10056 10057 10058 10060 10062 10065 10066 10069 10071 10072 10073 10075 10076 10077 10078 10080 10083 10086 10090 10093 10096 10100 10103 10108 10112 10116 10120
10166 10162 10158 10154 10150 10145 10141 10136 10133 10129 10125 10121 10118 10116 10113 10110 10106 10105 10103 10099 10095 10089 10085 10082 10080 10078 10077 10075 10074 10073 10071 10069 10066 10063 10060 10057 10056 10056 10055 10055 10054 10052 10051 10050 10049 10048 10048 10048 10047 10046 10046 10045 10045 10045 10046 10046 10046 10046 10047 10048 10048 10050 10051 10053 10055 10058 10060 10061 10063 10065 10066 10068 10069 10070 10072 10075 10078 10081 10085 10088 10092 10096 10100 10105 10108 10111
10158 10153 10149 10145 10140 10135 10131 10127 10123 10120 10116 10112 10109 10106 10103 10100 10096 10095 10093 10091 10087 10083 10079 10075 10071 10069 10067 10067 10066 10066 10063 10060 10057 10053 10050 10048 10048 10048 10049 10048 10047 10045 10043 10041 10040 10040 10039 10039 10038 10038 10038 10037 10037 10038 10038 10038 10038 10038 10039 10039 10040 10041 10043 10045 10046 10048 10051 10053 10055 10056 10058 10060 10061 10063 10065 10067 10070 10073 10076 10080 10085 10089 10093 10096 10100 10104
10150 10145 10140 10135 10130 10126 10121 10118 10115 10111 10108 10104 10100 10097 10095 10091 10088 10085 10083 10082 10079 10076 10072 10069 10065 10061 10058 10058 10058 10058 10056 10053 10049 10045 10041 10040 10040 10041 10042 10041 10040 10037 10035 10033 10032 10031 10031 10031 10031 10030 10030 10030 10030 10030 10030 10030 10030 10031 10031 10031 10032 10033 10035 10036 10039 10041 10043 10045 10046 10048 10050 10052 10054 10056 10058 10060 10062 10065 10069 10073 10077 10081 10086 10089 10093 10096
10140 10135 10130 10126 10122 10118 10113 10109 10106 10103 10100 10096 10093 10089 10086 10083 10080 10077 10075 10073 10071 10068 10065 10061 10058 10053 10051 10050 10050 10050 10049 10046 10041 10037 10034 10033 10034 10035 10035 10034 10031 10028 10026 10026 10025 10025 10025 10024 10023 10023 10023 10022 10023 10023 10023 10023 10023 10023 10024 10024 10025 10026 10028 10030 10031 10033 10035 10036 10038 10040 10042 10045 10047 10049 10051 10053 10055 10058 10061 10065 10070 10073 10077 10081 10085 10088
10131 10126 10122 10118 10114 10110 10105 10101 10098 10095 10092 10088 10085 10081 10078 10075 10072 10070 10068 10066 10063 10060 10057 10053 10050 10046 10044 10043 10043 10043 10041 10038 10033 10030 10028 10027 10028 10029 10028 10026 10023 10020 10018 10018 10019 10018 10018 10018 10016 10016 10015 10015 10015 10016 10016 10016 10016 10016 10017 10017 10018 10020 10021 10023 10024 10025 10027 10028 10030 10032 10034 10036 10039 10041 10044 10046 10048 10051 10054 10058 10061 10065 10069 10072 10076 10080
10123 10118 10114 10110 10106 10101 10097 10093 10089 10086 10084 10081 10077 10074 10070 10068 10065 10063 10061 10058 10056 10053 10050 10046 10043 10040 10037 10036 10036 10036 10033 10030 10026 10023 10022 10021 10021 10022 10021 10018 10015 10012 10012 10012 10013 10012 10011 10011 10010 10009 10009 10009 10009 10009 10009 10010 10010 10010 10010 10011 10011 10013 10014 10015 10016 10018 10019 10021 10023 10025 10026 10029 10031 10034 10036 10039 10041 10044 10046 10050 10053 10056 10060 10063 10067 10071
10115 10110 10105 10101 10098 10094 10089 10085 10081 10079 10076 10073 10070 10066 10063 10060 10058 10056 10054 10051 10049 10045 10042 10039 10036 10033 10031 10029 10028 10028 10027 10024 10020 10018 10016 10016 10015 10015 10014 10011 10008 10006 10006 10006 10006 10006 10005 10004 10003 10003 10003 10003 10003 10003 10003 10003 10003 10004 10004 10005 10005 10006 10006 10008 10009 10011 10012 10013 10015 10017 10020 10022 10025 10027 10029 10031 10034 10036 10039 10042 10045 10048 10052 10055 10059 10063
10106 10101 10096 10093 10090 10086 10081 10077 10074 10071 10068 10065 10062 10059 10056 10053 10051 10050 10047 10045 10042 10039 10035 10033 10030 10028 10025 10023 10021 10021 10020 10018 10015 10013 10011 10010 10010 10008 10006 10005 10003 10001 10001 10001 10000 10000 9998 9998 9998 9997 9997 9997 9997 9996 9996 9997 9997 9998 9998 9998 9999 10000 10000 10001 10003 10004 10005 10007 10009 10011 10013 10015 10018 10020 10022 10025 10027 10030 10032 10035 10038 10041 10045 10048 10052 10055
10098 10093 10088 10085 10082 10078 10074 10070 10066 10064 10061 10058 10055 10052 10049 10046 10044 10042 10040 10038 10035 10033 10030 10027 10025 10022 10020 10017 10015 10014 10013 10011 10010 10008 10006 10005 10003 10002 10000 9999 9998 9996 9996 9995 9995 9993 9993 9992 9992 9992 9991 9991 9991 9991 9991 9991 9991 9991 9992 9992 9993 9993 9995 9995 9996 9998 10000 10001 10003 10005 10006 10009 10011 10014 10016 10018 10021 10023 10026 10029 10032 10035 10039 10043 10046 10050
10091 10086 10081 10077 10075 10071 10067 10063 10060 10057 10055 10051 10049 10046 10043 10040 10038 10036 10033 10031 10029 10026 10025 10022 10018 10016 10014 10012 10010 10008 10007 10006 10004 10002 10001 10000 9998 9996 9995 9994 9993 9992 9991 9990 9989 9988 9988 9987 9986 9986 9986 9986 9986 9986 9986 9986 9986 9986 9986 9987 9988 9988 9989 9990 9991 9993 9995 9996 9998 9999 10001 10003 10006 10008 10010 10013 10015 10018 10020 10024 10027 10030 10033 10036 10040 10044
10083 10078 10074 10070 10067 10065 10061 10057 10053 10050 10048 10045 10043 10040 10037 10035 10032 10030 10027 10025 10023 10020 10018 10015 10013 10011 10008 10006 10005 10003 10001 10000 9998 9996 9995 9994 9993 9991 9990 9989 9988 9987 9986 9986 9985 9984 9983 9983 9982 9981 9981 9981 9981 9981 9981 9981 9981 9981 9982 9982 9983 9983 9985 9985 9986 9988 9990 9991 9992 9994 9996 9998 10000 10003 10005 10007 10010 10013 10015 10018 10021 10024 10028 10031 10035 10039
10075 10071 10067 10064 10061 10058 10055 10051 10048 10045 10042 10040 10037 10034 10031 10029 10026 10023 10021 10019 10016 10014 10012 10010 10008 10006 10003 10001 10000 9998 9996 9995 9993 9991 9990 9989 9988 9986 9986 9985 9984 9983 9982 9981 9980 9980 9978 9978 9977 9977 9976 9976 9976 9976 9976 9976 9976 9977 9977 9978 9978 9980 9980 9981 9983 9984 9985 9986 9987 9989 9991 9993 9995 9997 10000 10002 10005 10007 10010 10012 10015 10018 10022 10026 10030 10035
10067 10064 10060 10057 10055 10051 10049 10046 10042 10039 10036 10033 10031 10028 10026 10023 10021 10018 10015 10013 10011 10008 10006 10005 10003 10001 9999 9997 9995 9993 9991 9990 9989 9987 9986 9985 9983 9982 9981 9980 9980 9979 9978 9977 9976 9975 9975 9974 9973 9973 9973 9972 9972 9972 9972 9972 9972 9973 9973 9974 9975 9975 9976 9977 9978 9980 9980 9981 9983 9985 9986 9988 9990 9993 9995 9997 9999 10001 10003 10006 10010 10013 10016 10021 10025 10030
10060 10057 10054 10051 10048 10046 10043 10040 10036 10033 10030 10026 10024 10021 10020 10018 10015 10013 10010 10008 10005 10003 10001 10000 9998 9996 9994 9993 9991 9989 9987 9986 9984 9983 9982 9981 9979 9978 9977 9976 9975 9975 9973 9973 9972 9971 9970 9970 9969 9969 9968 9968 9968 9968 9968 9968 9968 9969 9969 9970 9970 9971 9972 9973 9974 9975 9976 9977 9979 9980 9982 9984 9986 9988 9990 9992 9995 9996 9999 10002 10005 10009 10013 10016 10021 10025
10055 10051 10049 10046 10043 10040 10037 10034 10031 10028 10025 10021 10018 10016 10014 10012 10010 10008 10006 10003 10001 9998 9996 9995 9993 9991 9990 9988 9986 9985 9983 9981 9980 9979 9978 9976 9975 9974 9973 9972 9971 9970 9970 9969 9968 9968 9966 9966 9965 9965 9965 9965 9965 9965 9965 9965 9965 9965 9965 9966 9966 9967 9968 9968 9970 9971 9972 9973 9975 9976 9978 9980 9982 9984 9986 9989 9991 9994 9996 10000 10003 10006 10010 10013 10017 10021
10049 10046 10043 10040 10037 10035 10031 10029 10026 10023 10020 10016 10014 10011 10009 10007 10005 10003 10001 9999 9996 9994 9992 9990 9988 9986 9985 9983 9981 9980 9978 9977 9976 9975 9974 9973 9971 9970 9969 9968 9968 9967 9966 9965 9965 9964 9963 9963 9962 9961 9961 9961 9961 9961 9961 9961 9961 9961 9961 9962 9963 9963 9964 9965 9966 9967 9968 9970 9971 9973 9975 9976 9979 9981 9983 9986 9989 9991 9995 9998 10001 10004 10007 10010 10014 10018
10043 10041 10038 10035 10032 10029 10026 10023 10021 10018 10015 10012 10009 10006 10005 10003 10001 9999 9997 9995 9993 9990 9988 9986 9984 9982 9981 9980 9978 9976 9975 9973 9972 9971 9970 9970 9968 9967 9966 9965 9965 9963 9963 9962 9961 9961 9960 9960 9959 9958 9958 9958 9958 9958 9958 9958 9958 9958 9958 9959 9960 9960 9961 9962 9963 9964 9965 9966 9968 9970 9972 9974 9976 9978 9981 9984 9986 9990 9993 9995 9998 10002 10005 10008 10011 10015
10038 10035 10033 10030 10027 10024 10021 10018 10016 10013 10010 10008 10005 10003 10000 9998 9996 9995 9992 9990 9988 9986 9985 9983 9980 9979 9977 9976 9975 9973 9971 9970 9969 9968 9967 9966 9965 9964 9963 9962 9961 9961 9960 9959 9958 9958 9957 9956 9956 9956 9955 9955 9955 9955 9955 9955 9955 9955 9955 9956 9956 9958 9958 9959 9960 9961 9963 9964 9965 9967 9969 9971 9973 9976 9978 9981 9984 9987 9990 9993 9996 10000 10003 10006 10010 10013
10033 10030 10027 10025 10022 10019 10016 10013 10011 10008 10006 10003 10001 9998 9996 9994 9992 9990 9988 9986 9985 9983 9981 9979 9977 9976 9974 9973 9971 9970 9968 9967 9966 9965 9964 9963 9962 9961 9960 9960 9958 9958 9957 9956 9956 9955 9955 9954 9953 9953 9952 9952 9952 9951 9951 9952 9952 9952 9953 9953 9954 9955 9956 9956 9958 9959 9960 9961 9963 9965 9967 9969 9971 9973 9976 9979 9982 9985 9988 9991 9995 9998 10001 10005 10008 10012
10028 10025 10022 10020 10017 10014 10011 10008 10006 10004 10001 9999 9997 9995 9992 9990 9988 9986 9984 9983 9981 9980 9978 9976 9974 9973 9971 9970 9968 9967 9966 9965 9963 9962 9961 9961 9960 9958 9958 9956 9956 9955 9955 9954 9953 9952 9951 9951 9951 9950 9950 9950 9949 9949 9949 9950 9950 9950 9951 9951 9951 9952 9953 9954 9955 9956 9958 9959 9961 9963 9965 9966 9969 9971 9974 9976 9980 9983 9986 9990 9993 9996 10000 10003 10006 10010
10022 10020 10017 10015 10012 10010 10006 10004 10001 10000 9997 9995 9993 9991 9988 9986 9984 9982 9981 9979 9978 9976 9975 9973 9971 9970 9968 9967 9966 9965 9963 9961 9961 9960 9959 9958 9957 9956 9955 9954 9953 9953 9952 9952 9951 9950 9949 9948 9948 9948 9948 9947 9947 9947 9947 9947 9948 9948 9948 9949 9949 9950 9951 9951 9953 9954 9955 9957 9958 9960 9962 9964 9966 9969 9971 9975 9978 9981 9984 9987 9991 9994 9997 10001 10004 10008
10017 10015 10012 10010 10007 10005 10002 10000 9997 9995 9993 9991 9989 9987 9985 9983 9981 9979 9977 9976 9975 9973 9971 9970 9968 9967 9966 9965 9964 9962 9960 9959 9958 9957 9956 9956 9955 9953 9953 9952 9951 9950 9950 9950 9950 9949 9948 9946 9946 9945 9945 9945 9945 9945 9945 9945 9946 9946 9946 9946 9947 9948 9949 9950 9951 9952 9953 9955 9956 9958 9960 9962 9965 9967 9970 9972 9975 9978 9981 9985 9988 9991 9995 9998 10001 10005
10013 10010 10008 10005 10003 10000 9998 9996 9993 9991 9989 9987 9985 9983 9981 9980 9978 9976 9975 9973 9971 9970 9969 9967 9966 9965 9963 9962 9961 9960 9958 9957 9956 9955 9954 9954 9953 9951 9950 9950 9949 9948 9947 9947 9946 9946 9946 9945 9944 9943 9943 9943 9943 9943 9943 9944 9944 9945 9945 9945 9945 9946 9947 9948 9949 9950 9952 9953 9955 9957 9959 9961 9963 9965 9968 9971 9973 9976 9980 9982 9985 9989 9992 9995 9999 10003
10008 10006 10003 10001 9998 9996 9994 9991 9990 9988 9986 9984 9982 9980 9978 9976 9975 9973 9971 9970 9969 9968 9966 9965 9963 9962 9961 9960 9958 9957 9956 9955 9954 9953 9952 9951 9951 9950 9948 9948 9947 9946 9945 9945 9945 9944 9943 9943 9942 9942 9941 9941 9941 9941 9942 9942 9943 9943 9943 9943 9944 9945 9946 9947 9948 9950 9951 9953 9955 9956 9958 9960 9963 9965 9967 9970 9972 9975 9978 9981 9984 9987 9991 9994 9998 10001
10004 10001 10000 9997 9995 9993 9990 9988 9986 9984 9982 9980 9978 9977 9975 9973 9972 9970 9969 9968 9966 9965 9963 9963 9961 9960 9959 9958 9956 9955 9954 9953 9951 9951 9950 9950 9949 9948 9946 9946 9945 9945 9944 9943 9943 9942 9941 9941 9941 9941 9940 9940 9940 9940 9940 9941 9941 9941 9941 9942 9943 9943 9945 9946 9947 9948 9950 9952 9954 9956 9958 9960 9962 9965 9967 9970 9972 9975 9978 9981 9984 9987 9990 9993 9997 10000
10000 9998 9996 9993 9991 9989 9987 9985 9983 9981 9980 9978 9976 9974 9973 9971 9970 9968 9966 9965 9964 9962 9961 9960 9958 9958 9956 9956 9955 9953 9951 9951 9950 9949 9948 9948 9947 9946 9945 9944 9943 9943 9943 9941 9941 9941 9940 9940 9940 9940 9939 9939 9939 9939 9940 9940 9940 9940 9940 9941 9942 9943 9944 9945 9946 9948 9950 9951 9953 9955 9958 9960 9962 9965 9967 9970 9972 9975 9978 9981 9984 9987 9990 9993 9996 10000
9996 9994 9992 9990 9988 9986 9984 9982 9980 9978 9976 9975 9973 9971 9970 9968 9967 9966 9964 9963 9961 9960 9959 9957 9956 9955 9954 9953 9952 9951 9950 9949 9948 9947 9946 9946 9945 9945 9944 9943 9942 9941 9941 9941 9940 9940 9940 9939 9938 9938 9938 9938 9938 9938 9938 9938 9938 9939 9940 9940 9941 9942 9943 9945 9946 9948 9949 9951 9953 9955 9957 9960 9961 9964 9966 9970 9972 9975 9978 9980 9983 9986 9990 9993 9996 9999
9993 9991 9988 9986 9985 9983 9981 9979 9977 9976 9974 9972 9971 9969 9968 9966 9965 9963 9961 9960 9959 9958 9956 9955 9954 9953 9952 9951 9950 9949 9948 9947 9946 9945 9945 9944 9944 9943 9943 9941 9941 9940 9940 9940 9939 9939 9938 9938 9938 9937 9937 9937 9937 9937 9937 9938 9938 9938 9939 9940 9941 9941 9943 9944 9945 9947 9948 9950 9952 9955 9956 9958 9961 9963 9966 9968 9971 9973 9976 9979 9982 9985 9988 9991 9995 9998
9990 9988 9986 9983 9981 9980 9978 9976 9975 9973 9971 9970 9968 9966 9965 9964 9962 9961 9960 9958 9957 9956 9955 9953 9952 9951 9950 9949 9948 9947 9946 9945 9945 9944 9943 9943 9942 9942 9941 9940 9940 9939 9939 9938 9938 9938 9938 9937 9937 9936 9936 9936 9936 9936 9936 9937 9937 9938 9938 9940 9940 9941 9943 9943 9945 9946 9948 9950 9952 9954 9956 9958 9960 9963 9965 9967 9970 9972 9975 9978 9981 9984 9987 9990 9993 9996
9986 9985 9983 9981 9979 9977 9975 9974 9972 9970 9969 9967 9966 9965 9963 9961 9960 9959 9958 9956 9955 9954 9953 9951 9950 9949 9948 9947 9946 9946 9945 9944 9943 9943 9942 9941 9941 9940 9940 9940 9939 9938 9938 9938 9937 9937 9936 9936 9936 9936 9936 9936 9936 9936 9936 9936 9936 9938 9938 9939 9940 9941 9942 9943 9945 9946 9948 9950 9951 9953 9955 9957 9959 9961 9964 9966 9969 9971 9974 9977 9980 9983 9986 9989 9991 9995
9984 9982 9980 9978 9976 9975 9973 9971 9970 9968 9966 9965 9963 9962 9961 9960 9958 9957 9956 9955 9953 9952 9951 9950 9949 9948 9946 9946 9945 9944 9943 9943 9942 9941 9941 9940 9940 9939 9939 9938 9938 9938 9937 9936 9936 9936 9935 9935 9935 9935 9935 9935 9935 9936 9936 9936 9936 9937 9938 9939 9940 9941 9941 9943 9945 9946 9948 9950 9951 9952 9955 9956 9959 9961 9963 9966 9968 9971 9973 9976 9978 9981 9985 9988 9991 9993
9981 9980 9978 9976 9974 9972 9971 9969 9968 9966 9965 9963 9961 9960 9959 9958 9956 9955 9954 9953 9951 9950 9949 9948 9947 9946 9945 9945 9944 9943 9942 9941 9940 9940 9940 9939 9938 9938 9938 9937 9937 9937 9936 9936 9935 9935 9935 9935 9935 9935 9935 9935 9935 9935 9935 9936 9936 9937 9938 9938 9940 9940 9941 9943 9944 9946 9948 9949 9950 9952 9955 9956 9958 9961 9963 9965 9968 9970 9973 9975 9978 9980 9983 9986 9989 9992
9978 9977 9975 9973 9971 9970 9968 9967 9965 9964 9962 9961 9960 9958 9957 9956 9955 9953 9952 9951 9950 9949 9948 9946 9946 9945 9944 9943 9942 9941 9941 9940 9939 9938 9938 9938 9937 9937 9936 9936 9936 9936 9935 9935 9935 9934 9934 9934 9934 9934 9934 9935 9935 9935 9935 9935 9936 9936 9938 9938 9939 9940 9941 9943 9944 9946 9947 9948 9950 9952 9954 9956 9958 9960 9963 9965 9967 9970 9973 9975 9977 9979 9981 9984 9987 9990
9976 9975 9973 9971 9970 9968 9966 9965 9963 9962 9961 9959 9958 9956 9955 9954 9953 9952 9951 9950 9948 9947 9946 9945 9945 9943 9943 9942 9941 9940 9940 9939 9938 9938 9937 9936 9936 9936 9936 9935 9935 9935 9935 9934 9934 9934 9933 9933 9933 9933 9934 9934 9934 9935 9935 9935 9936 9936 9938 9938 9939 9940 9941 9943 9945 9946 9947 9948 9950 9951 9953 9956 9958 9960 9962 9964 9966 9968 9971 9973 9976 9978 9980 9983 9985 9988
9973 9972 9971 9969 9968 9966 9965 9963 9961 9960 9959 9958 9956 9955 9954 9953 9951 9950 9950 9948 9947 9946 9945 9944 9943 9942 9941 9941 9940 9939 9938 9938 9937 9936 9936 9936 9935 9935 9935 9935 9934 9934 9934 9933 9933 9933 9933 9933 9933 9933 9933 9934 9934 9935 9935 9935 9936 9936 9938 9938 9940 9940 9941 9943 9945 9946 9947 9948 9950 9951 9953 9955 9957 9959 9961 9963 9965 9967 9970 9971 9974 9976 9978 9981 9983 9986
9971 9970 9968 9967 9966 9964 9963 9961 9960 9958 9957 9956 9955 9953 9952 9951 9950 9949 9948 9947 9946 9945 9944 9943 9942 9941 9940 9940 9939 9938 9938 9936 9936 9935 9935 9935 9935 9934 9934 9934 9933 9933 9933 9933 9933 9933 9933 9933 9933 9933 9933 9933 9934 9934 9935 9935 9936 9936 9938 9938 9940 9941 9941 9943 9944 9945 9946 9948 9950 9951 9953 9955 9956 9958 9960 9961 9963 9966 9968 9970 9972 9975 9977 9980 9982 9985
9969 9968 9966 9965 9964 9963 9961 9960 9958 9957 9956 9955 9953 9952 9951 9950 9949 9948 9947 9946 9945 9944 9943 9942 9941 9940 9940 9939 9938 9938 9937 9936 9935 9935 9934 9934 9934 9933 9933 9933 9933 9933 9933 9932 9932 9932 9932 9933 9933 9933 9933 9933 9934 9934 9935 9935 9936 9936 9938 9938 9940 9941 9941 9943 9944 9945 9946 9948 9950 9951 9953 9954 9956 9958 9960 9961 9963 9965 9966 9969 9971 9973 9976 9978 9981 9983
9967 9966 9965 9963 9962 9961 9960 9958 9957 9956 9955 9953 9952 9951 9950 9949 9948 9947 9946 9945 9944 9943 9942 9941 9940 9940 9939 9938 9938 9937 9936 9936 9935 9934 9933 9933 9933 9933 9933 9933 9932 9932 9932 9932 9932 9932 9932 9932 9932 9933 9933 9933 9933 9934 9935 9935 9936 9936 9938 9938 9940 9940 9941 9943 9944 9945 9946 9948 9950 9951 9953 9954 9956 9957 9959 9961 9963 9964 9966 9968 9970 9972 9975 9977 9980 9982
9966 9964 9963 9962 9961 9960 9958 9957 9956 9955 9953 9952 9951 9950 9949 9948 9947 9946 9945 9944 9943 9942 9941 9940 9940 9939 9938 9938 9937 9936 9936 9935 9934 9933 9933 9933 9933 9933 9932 9932 9932 9931 9931 9931 9931 9931 9931 9932 9932 9932 9933 9933 9933 9934 9935 9935 9936 9936 9938 9938 9940 9940 9941 9943 9944 9945 9946 9948 9950 9951 9953 9954 9956 9957 9959 9961 9962 9964 9966 9968 9970 9971 9974 9976 9978 9981
9964 9963 9961 9960 9959 9958 9956 9955 9955 9953 9952 9951 9950 9949 9948 9947 9946 9945 9944 9943 9942 9941 9940 9940 9939 9938 9938 9937 9936 9936 9935 9934 9933 9933 9932 9932 9932 9932 9931 9931 9931 9931 9931 9931 9931 9931 9931 9931 9931 9932 9932 9933 9933 9934 9935 9935 9936 9936 9937 9938 9939 9940 9941 9943 9944 9945 9946 9948 9950 9951 9952 9954 9956 9957 9959 9960 9962 9963 9965 9967 9969 9971 9973 9975 9978 9980
9962 9961 9960 9959 9958 9956 9955 9954 9953 9952 9951 9950 9949 9948 9946 9946 9945 9944 9943 9942 9941 9940 9940 9939 9938 9938 9937 9936 9936 9935 9935 9934 9933 9933 9932 9932 9931 9931 9931 9931 9931 9931 9931 9931 9931 9931 9931 9931 9931 9931 9932 9933 9933 9933 9934 9935 9935 9936 9937 9938 9939 9940 9941 9943 9944 9945 9946 9948 9950 9951 9953 9954 9956 9957 9959 9960 9962 9963 9965 9967 9969 9971 9973 9975 9977 9979